Regional Weather Roundup
Issued by NWS

Home | Current Version | Previous Version | Text Only | Print | Product List | Glossary On
Versions: 1 2 3 4 5 6 7 8 9 10 11 12 13 14 15 16 17 18 19 20 21 22 23 24 25 26 27 28 29 30 31 32 33 34 35 36 37 38 39 40 41 42 43 44 45 46 47 48 49 50
000
ASUS44 KJAN 280010
RWRMS

MISSISSIPPI HOURLY WEATHER ROUNDUP
NATIONAL WEATHER SERVICE JACKSON MS
600 PM CST MON FEB 27 2017

NOTE: "FAIR: INDICATES FEW OR NO CLOUDS BELOW 12,000 FEET WITH NO
SIGNIFICANT WEATHER AND/OR OBSTRUCTIONS TO VISIBILITY.

MSZ001>002-007>008-010>013-018>021-025>028-034>036-280100-
NORTHWEST MISSISSIPPI

CITY           SKY/WX    TMP DP  RH WIND       PRES   REMARKS
BATESVILLE     FAIR      57  52  84 SE3       30.11R
CLEVELAND      CLOUDY    58  58 100 E3        30.07S
GREENWOOD      PTCLDY    59  55  87 SE5       30.09F
6HR MIN TEMP:  54; 6HR MAX TEMP:  60; 6HR PCP:  0.04;

GREENVILLE     CLOUDY    60  57  89 SE9       30.06S
6HR MIN TEMP:  53; 6HR MAX TEMP:  61; 6HR PCP:  0.01;

OLIVE BRANCH   MOCLDY   N/A N/A N/A SE9       30.07R
OXFORD         FAIR      54  50  87 SE9       30.13R
TUNICA         CLOUDY    55  52  88 SE10      30.09R
WINONA         FAIR      56  56 100 CALM      30.10F
$$

MSZ003>006-009-014>017-022>024-029>033-037>039-280100-
NORTHEAST MISSISSIPPI

CITY           SKY/WX    TMP DP  RH WIND       PRES   REMARKS
COLUMBUS AFB   CLOUDY    57  55  92 SE5       30.14R
6HR MIN TEMP:  52; 6HR MAX TEMP:  58; 6HR PCP: TRACE;

CORINTH        CLOUDY    59  50  72 E6        30.11F
GOLDN TRIANGLE CLOUDY    55  50  82 SE9       30.11F
STARKVILLE     CLOUDY    55  54  94 SE3       30.15R
TUPELO         CLOUDY    56  50  80 SE8       30.14R
6HR MIN TEMP:  55; 6HR MAX TEMP:  59;

$$

MSZ040-058-280100-
CENTRAL MISSISSIPPI

CITY           SKY/WX    TMP DP  RH WIND       PRES   REMARKS
JACKSON INTL   CLOUDY    63  57  81 SE10      30.11R
6HR MIN TEMP:  59; 6HR MAX TEMP:  64; 6HR PCP: TRACE;

JACKSON HAWKNS CLOUDY    63  57  81 SE8       30.10S
6HR MIN TEMP:  58; 6HR MAX TEMP:  64; 6HR PCP: TRACE;

MADISON        MOCLDY   N/A N/A N/A E3        30.10F
MERIDIAN KEY   CLOUDY    62  60  93 SE5       30.16S
6HR MIN TEMP:  59; 6HR MAX TEMP:  66; 6HR PCP:  0.07;

MERIDIAN NAS   CLOUDY    61  56  83 SE8       30.16F
6HR MIN TEMP:  60; 6HR MAX TEMP:  66; 6HR PCP:  0.04;

VICKSBURG VKS  PTCLDY    64  57  77 E8        30.04S
$$

MSZ059>079-280100-
SOUTH MISSISSIPPI

CITY           SKY/WX    TMP DP  RH WIND       PRES   REMARKS
BROOKHAVEN     MOCLDY   N/A N/A N/A E6        30.11R
HATTIESBURG    CLOUDY    60  58  92 E8        30.15F
6HR MIN TEMP:  59; 6HR MAX TEMP:  62; 6HR PCP:  0.30;

LAUREL         CLOUDY    60  60 100 SE9       30.16R
MCCOMB         CLOUDY    62  58  86 E6        30.09S
6HR MIN TEMP:  61; 6HR MAX TEMP:  64; 6HR PCP:  0.08;

NATCHEZ        CLOUDY    66  55  68 E8        30.06R
6HR MIN TEMP:  61; 6HR MAX TEMP:  70;

PINE BELT      MOCLDY    61  55  82 E9G16     30.16S
6HR MIN TEMP:  57; 6HR MAX TEMP:  61; 6HR PCP:  0.01;

$$

MSZ080>082-280100-
COASTAL MISSISSIPPI

CITY           SKY/WX    TMP DP  RH WIND       PRES   REMARKS
BAY ST LOUIS   PTCLDY    72  64  78 S9        30.11S
BILOXI         CLOUDY    71  67  86 SE8       30.13S
6HR MIN TEMP:  71; 6HR MAX TEMP:  75;

PASCAGOULA     CLOUDY    65  58  78 NE8       30.16S
6HR MIN TEMP:  65; 6HR MAX TEMP:  78;

GULFPORT       MOCLDY    70  68  93 SE14      30.12S
6HR MIN TEMP:  70; 6HR MAX TEMP:  76;

$$

LAZ007>009-015>016-023>026-280100-
NORTHEAST LOUISIANA

CITY           SKY/WX    TMP DP  RH WIND       PRES   REMARKS
BASTROP        CLOUDY    63  61  96 E3        30.05R
TALLULAH/VBURG   N/A     64  58  80 SE10      30.07S
6HR MIN TEMP:  59; 6HR MAX TEMP:  65; 6HR PCP: TRACE;

VIDALIA        CLOUDY    67  60  79 E12       30.04R
$$



USA.gov is the U.S. government's official web portal to all federal, state and local government web resources and services.